W0KHZ Weather Reports


time (UTC)temp
F
wind
direction
speed
knots
gust
knots
rain 1hr
in
rain 24hr
in
rain mn
in
humidity
%
barometer
mb
20260502224523 63 299 1.7 5.2 0.00 0.00 0.00 33 1011.5
20260502224041 63 203 1.7 6.1 0.00 0.00 0.00 33 1011.7
20260502223520 63 209 2.6 7.8 0.00 0.00 0.00 33 1011.7
20260502223018 63 196 1.7 7.0 0.00 0.00 0.00 33 1011.7
20260502222516 63 309 1.7 5.2 0.00 0.00 0.00 32 1011.8
20260502222034 64 311 1.7 7.0 0.00 0.00 0.00 33 1011.9
20260502221532 64 270 0.9 7.8 0.00 0.00 0.00 33 1012.0
20260502221030 64 237 2.6 7.0 0.00 0.00 0.00 33 1012.1
20260502220528 64 208 2.6 8.7 0.00 0.00 0.00 33 1012.1
20260502220026 64 205 2.6 7.8 0.00 0.00 0.00 32 1012.2
20260502215545 64 230 1.7 7.0 0.00 0.00 0.00 32 1012.2
20260502215023 64 165 2.6 6.1 0.00 0.00 0.00 33 1012.1
20260502214521 64 297 1.7 8.7 0.00 0.00 0.00 32 1012.2
20260502214019 64 291 1.7 5.2 0.00 0.00 0.00 32 1012.2
20260502213517 64 283 1.7 6.1 0.00 0.00 0.00 32 1012.3
20260502213136 65 319 2.6 7.8 0.00 0.00 0.00 32 1012.4
20260502212534 65 291 2.6 6.1 0.00 0.00 0.00 34 1012.4
20260502212051 64 183 1.7 5.2 0.00 0.00 0.00 34 1012.4
20260502211529 64 170 2.6 7.0 0.00 0.00 0.00 34 1012.5
20260502211027 64 182 1.7 7.8 0.00 0.00 0.00 33 1012.6
20260502210606 64 233 2.6 8.7 0.00 0.00 0.00 33 1012.8
20260502210023 64 211 2.6 9.6 0.00 0.00 0.00 32 1012.9
20260502205521 63 208 2.6 9.6 0.00 0.00 0.00 34 1012.9
20260502205020 63 208 2.6 7.0 0.00 0.00 0.00 32 1012.9
20260502204517 63 197 2.6 7.0 0.00 0.00 0.00 31 1013.0
20260502204015 63 315 1.7 6.1 0.00 0.00 0.00 32 1013.1
20260502203533 63 275 2.6 6.1 0.00 0.00 0.00 32 1013.2
20260502203030 63 223 3.5 9.6 0.00 0.00 0.00 34 1013.2
20260502202528 63 272 1.7 5.2 0.00 0.00 0.00 34 1013.3
20260502202027 63 319 2.6 7.8 0.00 0.00 0.00 33 1013.4
20260502201545 63 298 2.6 7.8 0.00 0.00 0.00 33 1013.7
20260502201023 63 250 3.5 7.0 0.00 0.00 0.00 34 1013.6
20260502200521 63 256 3.5 7.0 0.00 0.00 0.00 34 1013.7
20260502200019 63 225 2.6 8.7 0.00 0.00 0.00 35 1013.8
20260502195517 63 177 3.5 7.0 0.00 0.00 0.00 35 1013.7
20260502195015 62 165 4.3 9.6 0.00 0.00 0.00 36 1013.8
20260502194533 62 213 2.6 7.0 0.00 0.00 0.00 35 1013.9
20260502194031 62 255 1.7 7.8 0.00 0.00 0.00 36 1014.0
20260502193529 61 165 2.6 8.7 0.00 0.00 0.00 35 1014.2
20260502193127 62 268 1.7 5.2 0.00 0.00 0.00 34 1014.1
20260502192544 62 244 2.6 7.8 0.00 0.00 0.00 33 1014.2
20260502192043 62 290 0.9 2.6 0.00 0.00 0.00 34 1014.3
20260502191521 62 313 1.7 6.1 0.00 0.00 0.00 35 1014.4
20260502191019 62 310 1.7 7.8 0.00 0.00 0.00 34 1014.4
20260502190517 62 318 4.3 11.3 0.00 0.00 0.00 34 1014.6
20260502190035 61 222 2.6 7.8 0.00 0.00 0.00 35 1014.5
20260502185553 61 217 2.6 7.0 0.00 0.00 0.00 35 1014.6
20260502185031 61 228 2.6 9.6 0.00 0.00 0.00 36 1014.7
20260502184529 61 216 2.6 7.8 0.00 0.00 0.00 36 1014.7
20260502184047 61 256 1.7 5.2 0.00 0.00 0.00 35 1015.0
20260502183546 61 256 2.6 5.2 0.00 0.00 0.00 35 1014.9
20260502183044 61 225 1.7 6.1 0.00 0.00 0.00 36 1015.0
20260502182522 61 240 2.6 7.8 0.00 0.00 0.00 36 1015.0
20260502182020 61 324 2.6 7.0 0.00 0.00 0.00 35 1015.1
20260502181519 61 285 1.7 6.1 0.00 0.00 0.00 36 1015.0
20260502181017 61 304 3.5 9.6 0.00 0.00 0.00 37 1015.1
20260502180535 60 314 3.5 7.8 0.00 0.00 0.00 37 1015.2
20260502164043 57 297 2.6 8.7 0.00 0.00 0.00 41 1016.1
20260502163542 56 328 0.9 5.2 0.00 0.00 0.00 41 1016.2
20260502163100 57 251 1.7 7.0 0.00 0.00 0.00 40 1016.1
20260502162518 57 295 1.7 5.2 0.00 0.00 0.00 43 1016.2
20260502162016 56 302 1.7 8.7 0.00 0.00 0.00 42 1016.3
20260502161535 57 330 2.6 7.0 0.00 0.00 0.00 38 1016.3
20260502161032 57 312 4.3 14.8 0.00 0.00 0.00 39 1016.2
20260502160530 58 210 2.6 7.0 0.00 0.00 0.00 43 1016.3
20260502152114 54 177 2.6 7.0 0.00 0.00 0.00 53 1016.8
20260502151552 54 178 1.7 5.2 0.00 0.00 0.00 55 1016.8
20260502151029 53 185 1.7 5.2 0.00 0.00 0.00 58 1016.9
20260502150528 53 153 2.6 5.2 0.00 0.00 0.00 57 1017.0
20260502130522 32 0.0 0.0 0.00 0.00 0.00 86 1017.9
20260502123532 29 0.0 0.0 0.00 0.00 0.00 85 1017.9
20260502123029 29 0.0 0.0 0.00 0.00 0.00 85 1017.9
20260502122528 29 0.0 0.0 0.00 0.00 0.00 85 1017.9
20260502122026 29 0.0 0.0 0.00 0.00 0.00 85 1017.9
20260502121524 29 0.0 0.0 0.00 0.00 0.00 85 1017.9
20260502121022 29 0.0 0.0 0.00 0.00 0.00 85 1017.7
20260502120521 29 0.0 0.0 0.00 0.00 0.00 86 1017.8
20260502115517 29 0.0 0.0 0.00 0.00 0.00 86 1017.7
20260502115035 29 0.0 0.0 0.00 0.00 0.00 86 1017.7
20260502114534 28 0.0 0.0 0.00 0.00 0.00 86 1017.7
20260502114032 28 0.0 0.0 0.00 0.00 0.00 86 1017.6
20260502113529 28 0.0 0.0 0.00 0.00 0.00 86 1017.5
20260502113047 28 0.0 0.0 0.00 0.00 0.00 85 1017.6
20260502112526 28 0.0 0.0 0.00 0.00 0.00 85 1017.6
20260502112024 29 0.0 0.0 0.00 0.00 0.00 85 1017.5
20260502111522 29 0.0 0.0 0.00 0.00 0.00 84 1017.4
20260502111020 29 0.0 0.0 0.00 0.00 0.00 84 1017.4
20260502110519 29 0.0 0.0 0.00 0.00 0.00 84 1017.4
20260502110037 29 0.0 0.0 0.00 0.00 0.00 85 1017.5
20260502105515 29 0.0 0.0 0.00 0.00 0.00 85 1017.5
20260502105034 29 0.0 0.0 0.00 0.00 0.00 84 1017.5
20260502104532 29 0.0 0.0 0.00 0.00 0.00 84 1017.5
20260502104029 29 0.0 0.0 0.00 0.00 0.00 84 1017.5
20260502103527 29 0.0 0.0 0.00 0.00 0.00 84 1017.6
20260502103025 29 0.0 0.0 0.00 0.00 0.00 84 1017.6
20260502102524 29 0.0 0.0 0.00 0.00 0.00 84 1017.6
20260502102022 29 0.0 0.0 0.00 0.00 0.00 83 1017.6
20260502101520 29 0.0 0.0 0.00 0.00 0.00 83 1017.5
20260502101018 29 0.0 0.0 0.00 0.00 0.00 83 1017.6
20260502100517 30 0.0 0.0 0.00 0.00 0.00 83 1017.6
20260502091518 30 0.0 0.0 0.00 0.00 0.00 82 1017.4
20260502091016 30 0.0 0.0 0.00 0.00 0.00 82 1017.4
20260502090535 30 0.0 0.0 0.00 0.00 0.00 82 1017.4
20260502071032 32 0.0 0.0 0.00 0.00 0.00 76 1017.6
20260502070530 32 0.0 0.0 0.00 0.00 0.00 75 1017.5
20260502070028 33 0.0 0.0 0.00 0.00 0.00 74 1017.4
20260502065526 33 0.0 0.0 0.00 0.00 0.00 74 1017.5
20260502065024 33 0.0 0.0 0.00 0.00 0.00 74 1017.6
20260502064522 33 0.0 0.0 0.00 0.00 0.00 74 1017.5
20260502064021 33 0.0 0.0 0.00 0.00 0.00 75 1017.6
20260502063519 33 0.0 0.0 0.00 0.00 0.00 74 1017.6
20260502063018 33 0.0 0.0 0.00 0.00 0.00 73 1017.7
20260502062516 33 0.0 0.0 0.00 0.00 0.00 73 1017.6
20260502062034 33 0.0 0.0 0.00 0.00 0.00 74 1017.6
20260502061532 33 0.0 0.0 0.00 0.00 0.00 75 1017.6
20260502061029 33 0.0 0.0 0.00 0.00 0.00 74 1017.5
20260502060527 33 0.0 0.0 0.00 0.00 0.00 73 1017.6
20260502060026 34 0.0 0.0 0.00 0.00 0.00 74 1017.5
20260502055524 34 0.0 0.0 0.00 0.00 0.00 74 1017.5
20260502055022 34 0.0 0.0 0.00 0.00 0.00 73 1017.5
20260502054521 34 0.0 0.0 0.00 0.00 0.00 71 1017.5
20260502054019 34 0.0 0.0 0.00 0.00 0.00 70 1017.4
20260502053517 35 0.0 0.0 0.00 0.00 0.00 71 1017.5
20260502053015 34 0.0 0.0 0.00 0.00 0.00 72 1017.4
20260502052534 35 0.0 0.0 0.00 0.00 0.00 72 1017.5
20260502052031 35 0.0 0.0 0.00 0.00 0.00 71 1017.4
20260502051529 35 0.0 0.0 0.00 0.00 0.00 70 1017.5
20260502051027 35 0.0 0.0 0.00 0.00 0.00 69 1017.5
20260502050525 35 0.0 0.0 0.00 0.00 0.00 69 1017.3
20260502050023 35 0.0 0.0 0.00 0.00 0.00 70 1017.3
20260502045522 35 0.0 0.0 0.00 0.00 0.00 70 1017.4
20260502045020 35 0.0 0.0 0.00 0.00 0.00 70 1017.3
20260502044519 36 0.0 0.0 0.00 0.00 0.00 70 1017.3
20260502044017 36 0.0 0.0 0.00 0.00 0.00 69 1017.3
20260502043535 36 0.0 0.0 0.00 0.00 0.00 69 1017.1
20260502043033 36 0.0 0.0 0.00 0.00 0.00 68 1017.2
20260502042551 36 0.0 0.0 0.00 0.00 0.00 68 1017.2
20260502042029 37 0.0 0.0 0.00 0.00 0.00 68 1017.1
20260502041527 37 0.0 0.0 0.00 0.00 0.00 66 1017.2
20260502041025 37 0.0 0.0 0.00 0.00 0.00 66 1017.2
20260502040523 37 0.0 0.0 0.00 0.00 0.00 66 1017.2
20260502040021 37 0.0 0.0 0.00 0.00 0.00 65 1017.1
20260502035600 37 0.0 0.0 0.00 0.00 0.00 65 1017.1
20260502035018 37 0.0 0.0 0.00 0.00 0.00 67 1017.1
20260502034516 37 0.0 0.0 0.00 0.00 0.00 70 1017.1
20260502034035 37 0.0 0.0 0.00 0.00 0.00 70 1017.1
20260502033533 37 0.0 0.0 0.00 0.00 0.00 70 1017.1
20260502033030 38 0.0 0.0 0.00 0.00 0.00 69 1017.1
20260502032528 38 0.0 0.0 0.00 0.00 0.00 67 1017.1
20260502032026 38 0.0 0.0 0.00 0.00 0.00 67 1017.1
20260502031525 39 0.0 0.0 0.00 0.00 0.00 65 1017.0
20260502031023 39 0.0 0.0 0.00 0.00 0.00 63 1017.1
20260502030521 40 0.0 0.0 0.00 0.00 0.00 61 1017.0
20260502030020 40 0.0 0.0 0.00 0.00 0.00 62 1017.1
20260502025538 40 0.0 0.0 0.00 0.00 0.00 60 1017.1
20260502025016 40 0.0 0.0 0.00 0.00 0.00 58 1017.0
20260502024535 41 0.0 0.0 0.00 0.00 0.00 58 1017.0
20260502024053 41 0.0 0.0 0.00 0.00 0.00 60 1017.0
20260502023530 41 0.0 0.0 0.00 0.00 0.00 61 1017.0
20260502023028 42 0.0 0.0 0.00 0.00 0.00 60 1017.0
20260502022526 42 0.0 0.0 0.00 0.00 0.00 56 1016.9
20260502022025 43 0.0 0.0 0.00 0.00 0.00 54 1016.8
20260502021543 43 0.0 0.0 0.00 0.00 0.00 54 1016.8
20260502021021 43 0.0 0.0 0.00 0.00 0.00 55 1016.9
20260502020520 44 0.0 0.0 0.00 0.00 0.00 53 1016.7
20260502020018 44 0.0 0.0 0.00 0.00 0.00 54 1016.7
20260502015536 45 0.0 0.0 0.00 0.00 0.00 52 1016.7
20260502015034 45 0.0 0.0 0.00 0.00 0.00 49 1016.6
20260502014532 45 0.0 0.0 0.00 0.00 0.00 47 1016.6
20260502014030 45 0.0 0.0 0.00 0.00 0.00 47 1016.5
20260502013528 46 0.0 0.0 0.00 0.00 0.00 45 1016.5
20260502013026 46 0.0 0.0 0.00 0.00 0.00 45 1016.4
20260502012524 47 0.0 0.0 0.00 0.00 0.00 44 1016.3
20260502012022 47 0.0 0.0 0.00 0.00 0.00 41 1016.3
20260502011601 47 0.0 0.0 0.00 0.00 0.00 41 1016.4
20260502011019 48 0.0 0.0 0.00 0.00 0.00 41 1016.2
20260502010537 48 0.0 0.0 0.00 0.00 0.00 40 1016.2
20260502010015 48 0.0 0.0 0.00 0.00 0.00 40 1016.1
20260502005554 48 0.0 0.0 0.00 0.00 0.00 39 1016.1
20260502005031 49 0.0 0.0 0.00 0.00 0.00 39 1016.0
20260502004529 49 0.0 0.0 0.00 0.00 0.00 38 1015.9
20260502004027 50 303 0.0 1.7 0.00 0.00 0.00 38 1016.0
20260502003525 50 283 0.0 0.9 0.00 0.00 0.00 38 1015.9
20260502003024 50 303 0.0 2.6 0.00 0.00 0.00 37 1015.8
20260502002542 51 301 1.7 5.2 0.00 0.00 0.00 37 1015.8
20260502002040 51 299 1.7 5.2 0.00 0.00 0.00 37 1015.9
20260502001518 51 299 1.7 6.1 0.00 0.00 0.00 37 1015.8
20260502001016 52 329 0.9 6.1 0.00 0.00 0.00 37 1015.7
20260502000535 52 302 1.7 5.2 0.00 0.00 0.00 36 1015.6
20260502000033 52 299 2.6 6.1 0.00 0.00 0.00 36 1015.6
20260501235551 53 293 1.7 6.1 0.00 0.00 0.00 35 1015.5
20260501235049 53 312 1.7 3.5 0.00 0.00 0.00 35 1015.4
20260501234547 53 304 2.6 7.0 0.00 0.00 0.00 35 1015.5
20260501234025 53 302 3.5 9.6 0.00 0.00 0.00 34 1015.5
20260501233523 54 288 4.3 13.0 0.00 0.00 0.00 35 1015.5
20260501233021 54 278 3.5 7.0 0.00 0.00 0.00 34 1015.5
20260501232520 54 296 3.5 9.6 0.00 0.00 0.00 35 1015.4
20260501232018 54 347 1.7 2.6 0.00 0.00 0.00 35 1015.5
20260501231516 54 330 2.6 6.1 0.00 0.00 0.00 34 1015.6
20260501231034 54 308 3.5 9.6 0.00 0.00 0.00 34 1015.6
20260501230533 54 305 1.7 8.7 0.00 0.00 0.00 35 1015.5
20260501230030 54 302 2.6 7.8 0.00 0.00 0.00 35 1015.6
20260501225528 54 227 1.7 5.2 0.00 0.00 0.00 34 1015.4
20260501225026 54 305 3.5 8.7 0.00 0.00 0.00 34 1015.4